Weather History for Mount Holly, NJ

Change the Weather History Date:

Wednesday, May 22, 2013

  Actual Average (KWRI) Record (KWRI)
Temperature  
Mean Temperature 76 °F -  
Max Temperature 87 °F 70 °F 87 °F (2004)
Min Temperature 66 °F 50 °F 41 °F (2002)
Cooling Degree Days 11    
Growing Degree Days 26 (Base 50)    
Moisture  
Dew Point 68 °F    
Average Humidity 81    
Maximum Humidity 94    
Minimum Humidity 57    
Precipitation  
Precipitation 0.00 in - - ()
Sea Level Pressure  
Sea Level Pressure 29.89 in    
Wind  
Wind Speed 2 mph (SW)    
Max Wind Speed 8 mph    
Max Gust Speed 16 mph    
Visibility 6 miles    
Events      
Averages and records for this station are not official NWS values.
T = Trace of Precipitation, MM = Missing Value Source: NWS Daily Summary

Daily Weather History Graph

Daily Weather History Graph

Search for Another Location

Airport:

Trip Planner

Search our weather history database for the weather conditions in past years. The results will help you decide how hot, cold, wet, or windy it might be!

Date:

Astronomy

May. 22, 2013 Rise Set
Actual Time 5:38 AM EDT 8:14 PM EDT
Civil Twilight 5:07 AM EDT 8:45 PM EDT
Nautical Twilight 4:28 AM EDT 9:24 PM EDT
Astronomical Twilight 3:44 AM EDT 10:08 PM EDT
Moon 5:33 PM EDT (5/22) 3:40 AM EDT (5/22)
Length of Visible Light 15h 38m
Length of Day
14h 35m
Waxing Gibbous, 91% of the Moon is Illuminated
May 22
Waxing Gibbous
May 25
Full
May 31
Last Quarter
Jun 8
New
Jun 16
First Quarter

Hourly Weather History & Observations

Time (EDT) Temp. Heat Index Dew Point Humidity Pressure Visibility Wind Dir Wind Speed Gust Speed Precip Events Conditions
12:54 AM 70.0 °F - 66.0 °F 87% 29.90 in 9.0 mi Calm Calm - N/A   Partly Cloudy
1:54 AM 69.1 °F - 66.0 °F 90% 29.89 in 7.0 mi Calm Calm - N/A   Clear
2:54 AM 68.0 °F - 64.9 °F 90% 29.88 in 5.0 mi Calm Calm - N/A   Clear
3:54 AM 66.9 °F - 64.9 °F 93% 29.86 in 4.0 mi Calm Calm - N/A   Clear
4:54 AM 66.9 °F - 64.9 °F 93% 29.86 in 4.0 mi Calm Calm - N/A   Clear
5:44 AM 66.2 °F - 64.4 °F 94% 29.88 in 2.5 mi Calm Calm - N/A   Scattered Clouds
5:51 AM 66.2 °F - 64.4 °F 94% 29.88 in 1.8 mi Calm Calm - N/A   Mostly Cloudy
5:54 AM 66.9 °F - 64.9 °F 93% 29.88 in 1.8 mi Calm Calm - N/A   Mostly Cloudy
6:12 AM 68.0 °F - 66.2 °F 94% 29.89 in 2.0 mi Calm Calm - N/A   Overcast
6:54 AM 70.0 °F - 66.9 °F 90% 29.89 in 3.0 mi SW 4.6 mph - N/A   Overcast
7:06 AM 69.8 °F - 68.0 °F 94% 29.89 in 2.5 mi Calm Calm - N/A   Overcast
7:38 AM 71.6 °F - 68.0 °F 88% 29.90 in 3.0 mi SW 3.5 mph - N/A   Overcast
7:54 AM 71.1 °F - 68.0 °F 90% 29.91 in 3.0 mi SW 4.6 mph - N/A   Overcast
8:54 AM 72.0 °F - 68.0 °F 87% 29.91 in 4.0 mi WSW 6.9 mph - N/A   Overcast
9:54 AM 73.0 °F - 69.1 °F 87% 29.91 in 5.0 mi Variable 3.5 mph - N/A   Overcast
10:24 AM 73.4 °F - 69.8 °F 88% 29.93 in 5.0 mi WSW 5.8 mph - N/A   Haze
10:54 AM 73.9 °F - 69.1 °F 85% 29.93 in 5.0 mi WSW 6.9 mph - N/A   Haze
11:54 AM 75.9 °F - 69.1 °F 79% 29.92 in 5.0 mi SW 4.6 mph - N/A   Haze
12:33 PM 77.0 °F - 69.8 °F 78% 29.91 in 6.0 mi Variable 3.5 mph - N/A   Haze
12:54 PM 80.1 °F 83.6 °F 71.1 °F 74% 29.91 in 6.0 mi Variable 5.8 mph - N/A   Haze
1:19 PM 80.6 °F 83.9 °F 69.8 °F 70% 29.89 in 7.0 mi Variable 4.6 mph - N/A   Scattered Clouds
1:54 PM 82.9 °F 87.0 °F 70.0 °F 65% 29.89 in 8.0 mi SW 6.9 mph - N/A   Partly Cloudy
2:54 PM 86.0 °F 90.7 °F 70.0 °F 59% 29.87 in 10.0 mi Variable 5.8 mph - N/A   Clear
3:54 PM 86.0 °F 90.1 °F 69.1 °F 57% 29.86 in 10.0 mi SW 6.9 mph 16.1 mph N/A   Clear
4:54 PM 84.9 °F 88.2 °F 68.0 °F 57% 29.85 in 10.0 mi Variable 5.8 mph - N/A   Clear
5:54 PM 84.9 °F 88.2 °F 68.0 °F 57% 29.84 in 10.0 mi South 8.1 mph - N/A   Clear
6:54 PM 82.0 °F 85.9 °F 70.0 °F 67% 29.85 in 8.0 mi Variable 6.9 mph - N/A   Clear
7:54 PM 79.0 °F - 69.1 °F 72% 29.86 in 8.0 mi Variable 4.6 mph - N/A   Clear
8:54 PM 77.0 °F - 68.0 °F 74% 29.87 in 9.0 mi Variable 4.6 mph - N/A   Clear
9:54 PM 75.0 °F - 66.9 °F 76% 29.90 in 9.0 mi Variable 3.5 mph - N/A   Clear
10:54 PM 73.0 °F - 66.9 °F 81% 29.91 in 9.0 mi South 4.6 mph - N/A   Mostly Cloudy
11:54 PM 72.0 °F - 66.0 °F 81% 29.90 in 10.0 mi South 3.5 mph - N/A   Overcast